Location: Dobrzeń Wielki
(50.7693°N, 17.8414°E)
Time: 07:32:12
(UTC+01:00)

Envisat - Pass Details

Date: 28 October 2019
Orbit: 764 x 766 km, 98.1° (Epoch: 12 November)

Event Time Altitude Azimuth Distance (km) Brightness Sun altitude
Rises 18:33:21 0° 192° (SSW) 3,221 6.3 -19.8°
Reaches altitude 10° 18:35:52 10° 201° (SSW) 2,299 5.7 -20.2°
Maximum altitude 18:40:24 33° 265° (W) 1,279 4.8 -20.9°
Drops below altitude 10° 18:44:59 10° 329° (NNW) 2,314 5.9 -21.6°
Sets 18:47:32 0° 339° (NNW) 3,245 6.6 -22.0°
